Hourly Data Report for September 11, 2016

SHEARWATER RCS
NOVA SCOTIA

44°37'47.000" N
63°30'48.000" W
24.00 m
8205092
71264
AAW

Download Data

Hourly Data (September 2016)
Hourly Data Report for September 11, 2016
TIME Temp Definition
°C
Dew Point Definition
°C
Rel Hum Definition
%
Wind Dir Definition
10's deg

Wind Spd Definition
km/h
Visibility Definition
km
Stn Press Definition
kPa
Hmdx Definition


Wind Chill Definition


Weather Definition


00:00 19.1 17.7 92 14 9   101.69     LegendNANA
01:00 19.1 17.5 90 15 12   101.68     LegendNANA
02:00 19.1 17.3 89 14 11   101.67     LegendNANA
03:00 19.2 16.8 86 15 17   101.61     LegendNANA
04:00 19.4 16.8 85 15 14   101.56     LegendNANA
05:00 19.3 17.3 88 15 18   101.51     LegendNANA
06:00 19.5 17.7 89 15 17   101.44     LegendNANA
07:00 19.8 18.0 90 14 18   101.40     LegendNANA
08:00 20.2 18.7 91 14 19   101.34 27   LegendNANA
09:00 20.1 19.0 93 16 20   101.30 27   LegendNANA
10:00 19.9 19.0 95 17 14   101.22     LegendNANA
11:00 20.4 19.5 95 19 18   101.15 28   LegendNANA
12:00 21.9 19.6 87 21 18   101.05 29   LegendNANA
13:00 21.9 19.7 87 21 24   100.96 29   LegendNANA
14:00 21.3 19.5 90 21 24   100.90 28   LegendNANA
15:00 20.9 19.7 93 22 22   100.89 28   LegendNANA
16:00 21.8 19.9 89 21 29   100.78 29   LegendNANA
17:00 21.4 19.9 91 21 30   100.69 29   LegendNANA
18:00 21.1 19.8 92 21 28   100.66 29   LegendNANA
19:00 20.8 19.4 92 22 27   100.66 28   LegendNANA
20:00 20.6 19.2 92 24 16   100.72 28   LegendNANA
21:00 20.5 16.5 78 29 17   100.78 25   LegendNANA
22:00 18.9 14.9 78 28 14   100.85     LegendNANA
23:00 17.8 13.3 75 29 19   100.93     LegendNANA

Notes on Data Quality.

Legend

  • E = Estimated
  • M = Missing
  • NA = Not Available*
  • [empty] = Indicates an unobserved value
Date modified: